Vorticity
5 6 5 5 4 3 4 4 3 2 3 3 3 4 5 5 7 8 9 9 10 8 7 6 5 9 12 10 8 8 7 5 4 4 4 3 5 3 3 7 9 6 6
3 4 4 4 3 5 3 3 3 2 3 2 2 4 5 4 7 8 9 9 9 9 9 8 5 5 7 9 9 8 7 7 7 6 6 7 3 9 10 6 6 9 4
3 2 2 4 4 4 2 2 2 1 4 3 3 3 5 4 6 7 7 8 8 9 10 10 9 7 4 5 7 7 7 7 8 8 3 3 6 18 -4 7 8 9 4
5 7 6 5 5 4 1 1 1 3 4 1 6 4 2 6 4 6 7 7 7 7 9 10 11 10 9 7 5 3 1 2 3 2 11 15 12 7 -10 5 7 9 -1
6 6 5 4 4 3 2 2 2 3 3 5 2 5 3 4 2 8 8 7 7 7 8 9 9 9 9 9 9 8 7 5 1 12 0 9 19 -12 9 11 7 1 11
4 8 8 6 4 5 4 2 2 4 6 0 9 -3 9 1 7 9 7 7 7 8 8 8 9 10 9 11 6 10 25 20 11 17 14 9 -2 9 2 3 9 5 20
9 6 3 4 4 4 7 8 8 0 2 6 -3 10 1 8 6 7 6 5 6 5 9 9 7 12 18 5 1 9 16 1 3 15 3 17 -6 11 2 3 8 17 17
2 -0 1 1 1 2 4 6 12 8 -3 5 8 2 7 4 4 4 6 7 9 11 12 1 11 18 -4 -4 5 7 15 7 -0 15 8 -10 7 1 -3 16 18 18 7
6 9 10 10 10 6 3 3 6 11 8 3 6 4 3 6 7 10 16 18 10 4 23 -10 5 -22 3 9 14 9 -2 14 10 11 5 7 7 4 12 18 12 5 9
7 10 11 11 10 9 8 3 7 10 10 6 4 5 9 9 3 9 6 40 6 -4 11 0 6 15 8 5 3 13 3 14 5 20 -16 5 -1 14 10 12 13 12 8
15 13 7 4 6 10 9 2 5 11 12 11 8 4 5 5 9 11 3 3 1 2 25 -15 14 5 8 7 6 6 13 11 6 6 15 12 -14 27 2 19 2 1 17
10 8 11 9 11 18 11 -2 -1 4 5 8 9 10 8 8 9 10 -2 -8 9 15 8 12 11 9 8 9 8 9 4 -2 -5 7 16 3 6 -5 13 6 7 -1 20
4 4 2 4 13 -10 -5 6 8 6 6 2 2 7 9 5 11 11 8 13 6 11 13 7 10 6 7 5 5 5 0 18 4 18 11 6 18 7 10 9 7 7 25
-8 -10 -3 3 6 8 7 3 6 17 23 15 1 -4 1 2 0 10 -1 7 16 9 4 5 1 -2 11 3 4 1 12 11 18 25 4 20 3 17 1 3 7 21 18
26 -2 -7 -9 -6 -0 2 7 4 -5 -11 -10 -5 5 7 7 0 5 16 10 3 8 7 -2 8 7 4 16 27 25 12 13 15 15 16 31 17 7 3 5 16 18 13
14 12 14 17 21 33 25 18 20 23 23 24 31 27 4 1 -6 -4 5 11 7 5 11 23 12 10 35 1 9 1 8 13 18 7 -2 6 2 5 4 11 19 16 12
11 15 17 14 16 17 10 5 4 4 3 4 5 2 2 4 7 7 9 12 10 8 12 12 9 -1 0 23 19 3 8 15 1 22 6 11 -2 4 14 16 18 16 10
-3 -2 4 9 16 18 19 19 18 19 20 16 12 7 7 12 15 16 13 9 13 16 20 7 16 37 22 10 13 19 16 13 10 9 6 1 9 11 19 20 14 12 8
15 9 7 6 8 6 2 3 12 18 17 15 16 16 16 16 14 12 11 26 13 13 16 14 18 21 21 16 3 -18 9 17 7 3 4 2 3 18 12 11 13 10 8
58 19 -2 19 -3 8 11 9 7 8 7 10 14 18 20 17 16 21 22 9 19 14 12 8 10 8 3 6 19 14 3 -1 -0 6 11 11 19 18 14 13 11 8 8
11 11 38 73 4 13 10 -0 8 3 0 3 5 6 10 13 7 4 7 13 18 7 15 9 9 3 -5 13 9 12 -0 -2 9 13 3 14 22 16 15 10 9 8 5
14 16 9 4 10 54 22 11 7 8 8 6 4 10 11 9 4 3 17 19 9 1 20 14 6 5 2 12 5 -1 8 14 5 13 22 18 17 14 10 7 8 6 6
28 41 29 23 10 14 22 31 17 -1 11 27 10 7 1 7 9 9 6 7 4 5 1 7 14 -2 -0 -3 3 7 8 7 14 13 21 16 14 11 8 8 7 4 7
38 25 24 36 34 12 15 20 29 23 -12 20 17 11 33 13 17 3 11 24 3 -2 -0 -6 17 13 13 9 10 7 23 17 19 17 20 13 7 8 7 7 6 6 6
27 15 19 15 20 24 28 9 31 16 21 -3 11 25 8 1 -7 26 0 1 24 -4 2 10 10 9 2 14 14 16 15 18 16 17 14 5 7 7 7 7 4 5 5
21 18 29 38 41 29 21 16 34 15 29 -8 13 10 11 4 12 11 -2 16 5 7 16 9 10 12 12 15 12 18 15 18 15 14 8 6 7 8 7 4 6 5 9
Height
5792 5794 5796 5799 5801 5804 5807 5808 5808 5808 5809 5809 5808 5808 5807 5805 5804 5804 5803 5802 5800 5798 5796 5794 5793 5791 5789 5787 5784 5783 5780 5776 5771 5766 5762 5757 5751 5744 5738 5730 5722 5714 5705
5778 5783 5787 5789 5793 5796 5799 5800 5801 5801 5801 5801 5800 5800 5798 5797 5796 5795 5795 5793 5791 5789 5788 5785 5784 5782 5780 5778 5776 5772 5770 5766 5762 5756 5751 5746 5740 5733 5727 5720 5711 5703 5693
5771 5775 5779 5782 5784 5787 5789 5790 5791 5792 5792 5792 5791 5791 5790 5789 5788 5787 5785 5783 5781 5780 5778 5777 5775 5773 5771 5768 5765 5762 5759 5756 5751 5746 5741 5736 5729 5723 5717 5708 5700 5691 5681
5762 5765 5769 5772 5775 5776 5777 5778 5781 5782 5783 5784 5782 5781 5780 5779 5779 5777 5775 5773 5771 5770 5769 5767 5765 5763 5760 5758 5755 5751 5748 5744 5741 5736 5730 5724 5718 5712 5706 5699 5689 5679 5670
5750 5752 5756 5760 5763 5765 5767 5768 5768 5769 5771 5772 5772 5771 5770 5769 5769 5768 5766 5763 5760 5759 5758 5757 5754 5752 5749 5747 5744 5740 5736 5732 5728 5723 5717 5711 5706 5700 5694 5686 5679 5670 5660
5738 5740 5743 5747 5750 5753 5756 5757 5756 5757 5758 5760 5760 5759 5758 5759 5758 5756 5755 5752 5751 5749 5747 5744 5742 5740 5737 5735 5732 5729 5724 5719 5714 5709 5705 5701 5695 5688 5681 5675 5666 5660 5650
5724 5726 5728 5732 5736 5738 5741 5744 5746 5746 5745 5745 5746 5747 5747 5746 5746 5744 5743 5741 5739 5738 5736 5733 5731 5728 5725 5722 5720 5716 5712 5707 5703 5700 5695 5690 5683 5677 5670 5663 5653 5645 5638
5709 5712 5714 5717 5721 5724 5726 5728 5731 5733 5733 5732 5733 5733 5734 5734 5733 5732 5731 5729 5727 5725 5723 5720 5718 5715 5712 5711 5707 5703 5701 5697 5692 5687 5683 5678 5670 5665 5658 5651 5643 5632 5624
5694 5697 5700 5703 5706 5708 5712 5714 5715 5716 5718 5720 5719 5719 5719 5720 5720 5719 5718 5715 5714 5711 5709 5707 5706 5706 5701 5699 5694 5691 5688 5684 5679 5674 5669 5664 5658 5653 5647 5637 5630 5624 5612
5678 5682 5685 5688 5690 5694 5696 5698 5700 5701 5702 5703 5704 5705 5704 5705 5706 5706 5704 5700 5699 5699 5696 5694 5693 5693 5689 5685 5681 5678 5674 5671 5666 5660 5655 5649 5644 5639 5632 5626 5618 5610 5604
5663 5667 5669 5671 5674 5676 5678 5681 5684 5685 5686 5687 5688 5689 5689 5690 5691 5692 5691 5690 5689 5686 5683 5681 5679 5677 5674 5672 5668 5664 5661 5657 5653 5649 5642 5636 5630 5623 5618 5613 5607 5600 5590
5647 5650 5653 5654 5657 5660 5662 5665 5667 5668 5670 5672 5673 5673 5674 5675 5675 5675 5675 5674 5672 5669 5670 5667 5664 5661 5659 5656 5653 5651 5647 5643 5639 5634 5629 5623 5616 5611 5604 5599 5594 5587 5580
5630 5634 5636 5638 5641 5643 5646 5649 5650 5652 5653 5655 5656 5656 5657 5658 5658 5659 5658 5658 5657 5655 5653 5651 5649 5646 5644 5642 5640 5636 5633 5629 5624 5620 5615 5609 5603 5597 5592 5586 5580 5573 5566
5611 5614 5616 5618 5621 5624 5626 5629 5631 5633 5635 5636 5638 5639 5640 5640 5640 5640 5641 5641 5640 5639 5637 5635 5633 5632 5629 5627 5625 5622 5619 5616 5611 5605 5601 5595 5590 5584 5580 5573 5566 5559 5553
5590 5592 5594 5596 5598 5602 5605 5607 5610 5612 5615 5617 5619 5620 5621 5621 5623 5622 5621 5623 5623 5622 5620 5619 5618 5616 5614 5612 5610 5607 5605 5600 5596 5591 5587 5583 5577 5573 5568 5562 5555 5549 5542
5569 5570 5572 5575 5577 5581 5583 5586 5589 5592 5593 5594 5597 5598 5600 5601 5602 5603 5604 5605 5605 5605 5603 5602 5602 5601 5599 5597 5596 5593 5589 5585 5582 5578 5573 5569 5565 5560 5555 5550 5543 5537 5531
5548 5550 5551 5553 5555 5558 5562 5564 5566 5568 5571 5574 5577 5578 5579 5580 5581 5582 5584 5585 5585 5585 5586 5586 5586 5584 5583 5580 5579 5578 5575 5572 5568 5563 5560 5556 5552 5548 5543 5537 5531 5526 5522
5525 5528 5530 5532 5534 5536 5539 5541 5544 5546 5549 5552 5554 5557 5558 5559 5562 5563 5565 5566 5568 5569 5569 5569 5569 5567 5566 5566 5565 5563 5560 5558 5555 5552 5548 5544 5540 5535 5529 5525 5520 5515 5510
5502 5504 5505 5509 5512 5515 5517 5520 5522 5525 5528 5530 5532 5534 5537 5541 5543 5544 5546 5550 5552 5552 5552 5551 5551 5551 5551 5551 5550 5549 5547 5544 5541 5538 5535 5531 5528 5523 5517 5512 5508 5505 5501
5476 5479 5480 5484 5488 5491 5495 5498 5502 5505 5508 5510 5513 5515 5519 5522 5525 5528 5531 5533 5534 5534 5534 5535 5535 5535 5535 5535 5535 5534 5532 5530 5528 5524 5522 5518 5514 5509 5505 5501 5498 5494 5490
5454 5454 5453 5456 5461 5464 5471 5475 5479 5483 5487 5491 5494 5498 5502 5506 5509 5512 5513 5515 5517 5517 5518 5519 5520 5520 5521 5521 5521 5520 5518 5516 5513 5510 5507 5504 5500 5496 5494 5490 5487 5483 5478
5428 5428 5429 5431 5434 5435 5441 5447 5454 5461 5465 5470 5475 5479 5484 5490 5493 5494 5496 5497 5499 5501 5503 5504 5506 5507 5507 5507 5506 5506 5504 5502 5499 5497 5493 5488 5487 5484 5483 5479 5476 5471 5466
5401 5399 5400 5402 5407 5410 5414 5421 5428 5436 5444 5448 5453 5460 5467 5470 5473 5477 5479 5480 5483 5484 5487 5490 5491 5492 5490 5490 5490 5490 5489 5487 5484 5480 5478 5476 5475 5473 5471 5468 5464 5460 5455
5374 5372 5373 5375 5379 5384 5390 5395 5402 5411 5421 5426 5432 5440 5444 5448 5453 5456 5460 5463 5466 5468 5470 5473 5474 5473 5474 5475 5475 5475 5474 5472 5469 5466 5466 5464 5463 5462 5460 5457 5453 5449 5444
5348 5348 5348 5349 5351 5357 5363 5370 5378 5386 5395 5406 5415 5418 5421 5424 5430 5436 5440 5444 5447 5450 5453 5454 5456 5458 5459 5460 5460 5459 5458 5455 5455 5455 5454 5452 5452 5451 5448 5445 5442 5438 5432
5325 5323 5322 5321 5324 5330 5337 5346 5356 5367 5375 5384 5390 5396 5399 5404 5409 5416 5420 5424 5428 5432 5434 5437 5439 5442 5445 5444 5444 5445 5443 5443 5442 5443 5444 5441 5439 5438 5436 5433 5429 5424 5419